Regional Weather Roundup
Issued by NWS San Angelo, TX

Home | Current Version | Previous Version | Text Only | Print | Product List | Glossary Off
Versions: 1 2 3 4 5 6 7 8 9 10 11 12 13 14 15 16 17 18 19 20 21 22 23 24 25 26 27 28 29 30 31 32 33 34 35 36 37 38 39 40 41 42 43 44 45 46 47 48 49 50

000
ASUS44 KSJT 212010
RWRSJT
WEST CENTRAL TEXAS REGIONAL WEATHER ROUNDUP
NATIONAL WEATHER SERVICE SAN ANGELO TX
300 PM CDT MON AUG 21 2017

NOTE: "FAIR" INDICATES FEW OR NO CLOUDS BELOW 12,000 FEET WITH NO
SIGNIFICANT WEATHER AND/OR OBSTRUCTIONS TO VISIBILITY.

TXZ049-054-064>066-071>073-076>078-098-099-113-114-127-128-139-140-
154-155-168>170-212100
...LOCATIONS ACROSS WEST CENTRAL TEXAS...

CITY           SKY/WX    TMP DP  RH WIND       PRES   REMARKS
SAN ANGELO     SUNNY     93  61  34 S13       30.08F
ABILENE        SUNNY     91  64  40 S13       30.09F
DYESS AFB      MOSUNNY   92  64  39 SE7G17    30.07F
JUNCTION       MOSUNNY   91  65  41 SE9       30.09S
SWEETWATER     SUNNY     90  62  39 S10G17    30.13F
BROWNWOOD      SUNNY     93  63  36 S10G24    30.08F
COLEMAN        CLEAR     93  60  32 S10G17    30.10S
SONORA         SUNNY     90  61  37 S12       30.15F
OZONA          FAIR      86  64  48 S12G20    30.14F
BRADY          NOT AVBL
$$

TEXAS PANHANDLE/OKLAHOMA PANHANDLE

CITY           SKY/WX    TMP DP  RH WIND       PRES   REMARKS
AMARILLO       MOSUNNY   80  65  59 S18G24    30.15S
BORGER         CLOUDY    81  67  62 SW10G21   30.11S
CANADIAN       CLOUDY    87  69  55 S9        30.06S
DALHART        CLOUDY    81  66  60 S18       30.14R
DUMAS          CLOUDY    75  65  71 S18       30.13S
GUYMON         NOT AVBL
HEREFORD       CLOUDY    82  68  63 S10       30.17S
PAMPA          CLOUDY    85  66  53 S16       30.13S
PERRYTON       CLOUDY    79  70  73 SW15      30.08S
$$

SOUTHERN PANHANDLE/SOUTH PLAINS/ROLLING PLAINS

CITY           SKY/WX    TMP DP  RH WIND       PRES   REMARKS
LUBBOCK        CLOUDY    85  65  51 SW14      30.13F
SNYDER         MOSUNNY   91  64  41 S12G18    30.10F
CHILDRESS      SUNNY     92  68  45 S12       30.06F
SEMINOLE       DRIZZLE   82  63  53 S13       30.16S
$$

PERMIAN BASIN

CITY           SKY/WX    TMP DP  RH WIND       PRES   REMARKS
MIDLAND        MOSUNNY   89  62  40 S17       30.11F
ODESSA         CLOUDY    89  64  43 S13G21    30.13F
WINK           CLOUDY    83  67  58 S8        30.10F
$$

FAR WEST/SOUTHWEST MOUNTAINS/TRANS PECOS

CITY           SKY/WX    TMP DP  RH WIND       PRES   REMARKS
ALPINE         CLOUDY    82  62  51 SE10      30.26F
DRYDEN           N/A     89  67  47 E9        30.07S
EL PASO        MOSUNNY   82  63  52 VRB3      30.14F
FORT STOCKTON  CLOUDY    88  64  44 S8        30.11F
GUADALUPE PASS SUNNY     81  61  50 SW16G24   30.27F
MARFA          CLOUDY    79  63  57 S12       30.25S
PECOS          CLOUDY    83  66  55 CALM      30.11S
$$

DALLAS/FORT WORTH METROPLEX

CITY           SKY/WX    TMP DP  RH WIND       PRES   REMARKS
DFW AIRPORT    MOSUNNY   94  70  45 SE7       30.04F
FTW MEACHAM    SUNNY     94  70  45 S9G16     30.05S
DAL-EXECUTIVE  MOSUNNY   93  71  48 VRB7      30.06S
GRAND PRAIRIE  SUNNY     93  64  38 S9        30.07F
ADDISON        SUNNY     91  68  46 S12G18    30.07S
MESQUITE       PTCLDY    91  70  49 SE12      30.07S
LANCASTER      CLEAR     94  69  43 SE9G18    30.06F
$$

NORTH CENTRAL TEXAS

CITY           SKY/WX    TMP DP  RH WIND       PRES   REMARKS
SHRMAN/DENISON CLEAR     90  74  60 SE9       30.08S
GAINESVILLE    SUNNY     90  70  51 E8        30.09S
BRIDGEPORT     CLEAR     91  69  47 SE7       30.08S
DENTON         SUNNY     92  70  48 S13       30.06S
WAXAHACHIE     CLEAR     92  70  47 S9        30.08F
GRANBURY       CLEAR     93  67  41 S10G16    30.07F
$$

WESTERN NORTH TEXAS

CITY           SKY/WX    TMP DP  RH WIND       PRES   REMARKS
WICHITA FALLS  MOSUNNY   92  69  47 S15       30.04F
VERNON         CLEAR     94  59  30 S12G22    30.05F
BRECKENRIDGE   CLEAR     94  61  32 SE14      30.06F
COMANCHE       SUNNY     95  63  34 S6G20     30.08F
$$

CENTRAL AND SOUTH CENTRAL TEXAS

CITY           SKY/WX    TMP DP  RH WIND       PRES   REMARKS
AUSTIN/BERGSTM MOSUNNY   92  68  45 VRB7      30.05F
WACO           MOSUNNY   94  69  44 SE13      30.05F
HILLSBORO      CLEAR     93  69  44 S13       30.07F
TEMPLE         MOSUNNY   94  69  44 S13G20    30.07F
KILLEEN-GRAY   MOSUNNY   90  69  49 SE12G17   30.07F
FORT HOOD      MOSUNNY   89  68  49 E8        30.04F
GEORGETOWN     MOSUNNY   91  68  46 SW9       30.08F
LAGO VISTA     FAIR      90  66  45 SE6       30.10S
SAN MARCOS     PTSUNNY   92  70  48 CALM      30.06F
NEW BRAUNFELS  MOSUNNY   93  68  43 VRB3      30.04F
RANDOLPH AFB   MOSUNNY   90  68  48 CALM      30.06S
SAN ANTONIO    MOSUNNY   89  69  51 CALM      30.06F
STINSON        MOSUNNY   93  71  48 VRB3      30.03F
PLEASANTON     NOT AVBL
LA GRANGE      PTSUNNY   96  71  44 E3        30.02F
GIDDINGS       MOCLDY    94  66  39 S6        30.06S
$$

EAST TEXAS

CITY           SKY/WX    TMP DP  RH WIND       PRES   REMARKS
PARIS          SUNNY     90  74  59 SE9       30.09F
CLARKSVILLE    NOT AVBL
TYLER          MOSUNNY   88  72  58 SE5       30.09S
LONGVIEW       MOSUNNY   90  76  63 E6        30.08S
PALESTINE      MOCLDY    94  71  48 SE8       30.08F
NACOGDOCHES    CLOUDY    89  74  60 E7        30.08F
$$

TEXAS HILL COUNTRY AND EDWARDS PLATEAU

CITY           SKY/WX    TMP DP  RH WIND       PRES   REMARKS
LLANO          PTCLDY    91  70  49 S5        30.11S
HORSESHOE BAY  FAIR      93  66  40 S7        30.08F
KERRVILLE      MOSUNNY   87  69  54 S9        30.11F
FREDERICKSBRG  MOSUNNY   88  63  43 S7        30.11F
ROCKSPRINGS    NOT AVBL
HONDO          MOSUNNY   92  69  47 VRB3      30.06F
UVALDE         MOCLDY    91  65  42 E6        30.06F
DEL RIO        CLOUDY    92  65  40 VRB6      30.02F
$$

SOUTHEAST TEXAS

CITY           SKY/WX    TMP DP  RH WIND       PRES   REMARKS
COLLEGE STN    PTSUNNY   93  70  46 E8        30.05F
CALDWELL       NOT AVBL
CROCKETT       MOCLDY    93  70  46 SE5       30.09F
BRENHAM        MOSUNNY   94  69  44 CALM      30.06S
HUNTSVILLE     MOSUNNY   93  69  45 E6        30.06F
CONROE         SUNNY     93  71  48 E8        30.05F
HOUSTON BUSH   MOSUNNY   93  74  53 SE10      30.04F
HOUSTON HOBBY  MOSUNNY   94  73  50 E8        30.04F
PERLAND        MOSUNNY   89  73  59 S15       30.06S
WHARTON        PTCLDY    92  70  47 SE7       30.03F
$$

THE UPPER TEXAS COAST

CITY           SKY/WX    TMP DP  RH WIND       PRES   REMARKS
ORANGE         PTCLDY    82  74  77 SW6       30.08S
PORT ARTHUR    PTSUNNY   90  75  61 NE8       30.06R
GALVESTON      MOSUNNY   91  77  63 SE12      30.06F
ANGLETON       MOSUNNY   92  76  59 E10       30.04F
BAY CITY       PTCLDY    91  75  60 SE10      30.04S
$$

TEXAS COASTAL BEND, RIO GRANDE PLAINS DEEP SOUTH TEXAS

CITY           SKY/WX    TMP DP  RH WIND       PRES   REMARKS
VICTORIA       SUNNY     93  69  45 SE9G18    30.02F
BEEVILLE       FAIR      98  68  37 S6        30.01F
ROCKPORT       SUNNY     91  75  59 E12       30.02S
PORT ARANSAS   CLEAR     88  77  68 E9        30.03S
PORT LAVACA    CLEAR     90  74  58 E14G20    30.03F
CORPUS CHRISTI MOSUNNY   93  74  53 SE13G22   30.01F
KINGSVILLE NAS MOSUNNY   97  73  45 SE10G21   30.00S
COTULLA        MOSUNNY   94  65  38 SE10      30.02S
LAREDO         PTSUNNY   95  68  41 E12       30.00F
BROWNSVILLE    MOSUNNY   93  74  53 E14G21    29.98F
PORT ISABEL    SUNNY     91  76  61 E16       29.99F
HEBBRONVILLE   MOCLDY    93  62  35 SE8       30.02F
MCALLEN        MOSUNNY   96  70  42 E8        29.97F
WESLACO        SUNNY     93  71  48 SE10G18   29.97F
FALFURRIAS     PTCLDY    97  69  40 CALM      29.98F
EDINBURG       PTCLDY    97  68  38 E15       29.98S
$$




USA.gov is the U.S. government's official web portal to all federal, state and local government web resources and services.